International Skating Union - Official Site

ISU World Cup Speed Skating Calgary
December 1-3, 2017

Draw | Lap Times | Index | World Cup

Referee: Bert  TIMMERMAN  (NED)
Starter: Brad  BATES  (CAN)
StartTime: EndTime: Air Temp: Ice Temp: Humidity:
16:25 17:51 16℃ -8.4℃ 30%
Result 5000m Men Division B
Rankings as of Dec 1 2017 5:53PM
Rank: No.: Name: Nation: Time: Behind: Points:
1 103 Bob  de Vries NED NED 6:10.48200m - 19.36 - (19.3)
600m - 47.99 - (28.6)
1000m - 1:16.60 - (28.6)
1400m - 1:45.77 - (29.1)
1800m - 2:14.98 - (29.2)
2200m - 2:44.29 - (29.3)
2600m - 3:13.43 - (29.1)
3000m - 3:42.57 - (29.1)
3400m - 4:11.51 - (28.9)
3800m - 4:40.95 - (29.4)
4200m - 5:10.42 - (29.4)
4600m - 5:40.35 - (29.9)
5000m - 6:10.48 - (30.1)
32
2 149 Danil  Sinitsyn RUS RUS 6:12.15200m - 19.19 - (19.1)
600m - 48.32 - (29.1)
1000m - 1:17.19 - (28.8)
1400m - 1:46.09 - (28.9)
1800m - 2:15.01 - (28.9)
2200m - 2:44.09 - (29.0)
2600m - 3:13.22 - (29.1)
3000m - 3:42.36 - (29.1)
3400m - 4:11.54 - (29.1)
3800m - 4:41.12 - (29.5)
4200m - 5:11.18 - (30.0)
4600m - 5:41.86 - (30.6)
5000m - 6:12.15 - (30.2)
1.67 27
3 96 Seung-Hoon  Lee KOR KOR 6:12.41200m - 19.00 - (19.0)
600m - 48.30 - (29.2)
1000m - 1:17.59 - (29.2)
1400m - 1:46.99 - (29.3)
1800m - 2:16.35 - (29.3)
2200m - 2:45.88 - (29.5)
2600m - 3:15.40 - (29.5)
3000m - 3:45.21 - (29.8)
3400m - 4:14.98 - (29.7)
3800m - 4:44.64 - (29.6)
4200m - 5:14.03 - (29.3)
4600m - 5:43.42 - (29.3)
5000m - 6:12.41 - (28.9)
1.93 23
4 70 Seitaro  Ichinohe JPN JPN 6:12.80200m - 19.08 - (19.0)
600m - 47.86 - (28.7)
1000m - 1:17.41 - (29.5)
1400m - 1:46.24 - (28.8)
1800m - 2:15.44 - (29.2)
2200m - 2:44.49 - (29.0)
2600m - 3:13.62 - (29.1)
3000m - 3:42.78 - (29.1)
3400m - 4:11.97 - (29.1)
3800m - 4:41.44 - (29.4)
4200m - 5:11.57 - (30.1)
4600m - 5:42.00 - (30.4)
5000m - 6:12.80 - (30.8)
2.32 19
5 148 Danila  Semerikov RUS RUS 6:14.01200m - 18.98 - (18.9)
600m - 47.83 - (28.8)
1000m - 1:16.64 - (28.8)
1400m - 1:45.64 - (29.0)
1800m - 2:14.69 - (29.0)
2200m - 2:43.78 - (29.0)
2600m - 3:12.91 - (29.1)
3000m - 3:42.20 - (29.2)
3400m - 4:11.50 - (29.3)
3800m - 4:41.16 - (29.6)
4200m - 5:10.96 - (29.7)
4600m - 5:41.61 - (30.6)
5000m - 6:14.01 - (32.3)
3.53 15
6 156 Livio  Wenger SUI SUI 6:14.51200m - 18.68 - (18.6)
600m - 47.49 - (28.8)
1000m - 1:17.39 - (29.8)
1400m - 1:46.98 - (29.5)
1800m - 2:16.66 - (29.6)
2200m - 2:46.46 - (29.8)
2600m - 3:15.92 - (29.4)
3000m - 3:45.40 - (29.4)
3400m - 4:14.53 - (29.1)
3800m - 4:43.72 - (29.1)
4200m - 5:13.34 - (29.6)
4600m - 5:43.54 - (30.2)
5000m - 6:14.51 - (30.9)
4.03 11
7 123 Simen Spieler  Nilsen NOR NOR 6:14.79200m - 18.71 - (18.7)
600m - 48.55 - (29.8)
1000m - 1:18.87 - (30.3)
1400m - 1:48.62 - (29.7)
1800m - 2:18.19 - (29.5)
2200m - 2:48.09 - (29.9)
2600m - 3:17.85 - (29.7)
3000m - 3:47.35 - (29.5)
3400m - 4:16.84 - (29.4)
3800m - 4:46.26 - (29.4)
4200m - 5:15.76 - (29.5)
4600m - 5:45.46 - (29.6)
5000m - 6:14.79 - (29.3)
4.31 9
8 119 Sindre  Henriksen NOR NOR 6:15.74200m - 18.58 - (18.5)
600m - 47.46 - (28.8)
1000m - 1:17.04 - (29.5)
1400m - 1:46.81 - (29.7)
1800m - 2:16.36 - (29.5)
2200m - 2:46.06 - (29.6)
2600m - 3:15.73 - (29.6)
3000m - 3:45.33 - (29.6)
3400m - 4:14.80 - (29.4)
3800m - 4:44.24 - (29.4)
4200m - 5:14.03 - (29.7)
4600m - 5:44.35 - (30.3)
5000m - 6:15.74 - (31.3)
5.26 7
9 6 Bart  Swings BEL BEL 6:15.80200m - 18.83 - (18.8)
600m - 48.39 - (29.5)
1000m - 1:17.81 - (29.4)
1400m - 1:47.12 - (29.3)
1800m - 2:16.76 - (29.6)
2200m - 2:46.50 - (29.7)
2600m - 3:16.31 - (29.8)
3000m - 3:45.90 - (29.5)
3400m - 4:15.75 - (29.8)
3800m - 4:45.65 - (29.8)
4200m - 5:15.44 - (29.7)
4600m - 5:45.48 - (30.0)
5000m - 6:15.80 - (30.3)
5.32 6
10 158 Nils  van der Poel SWE SWE 6:16.03200m - 19.24 - (19.2)
600m - 48.80 - (29.5)
1000m - 1:18.59 - (29.7)
1400m - 1:48.69 - (30.0)
1800m - 2:18.44 - (29.7)
2200m - 2:48.53 - (30.0)
2600m - 3:18.44 - (29.9)
3000m - 3:48.67 - (30.2)
3400m - 4:18.46 - (29.7)
3800m - 4:48.01 - (29.5)
4200m - 5:17.41 - (29.4)
4600m - 5:46.97 - (29.5)
5000m - 6:16.03 - (29.0)
5.55 5
11 15 Benjamin  Donnelly CAN CAN 6:16.60200m - 19.38 - (19.3)
600m - 48.85 - (29.4)
1000m - 1:18.75 - (29.8)
1400m - 1:48.27 - (29.5)
1800m - 2:17.82 - (29.5)
2200m - 2:47.11 - (29.2)
2600m - 3:16.66 - (29.5)
3000m - 3:46.15 - (29.4)
3400m - 4:15.74 - (29.5)
3800m - 4:45.16 - (29.4)
4200m - 5:14.90 - (29.7)
4600m - 5:45.12 - (30.2)
5000m - 6:16.60 - (31.4)
6.12 4
12 137 Jan  Szymanski POL POL 6:16.84200m - 19.18 - (19.1)
600m - 48.31 - (29.1)
1000m - 1:17.79 - (29.4)
1400m - 1:47.68 - (29.8)
1800m - 2:17.49 - (29.8)
2200m - 2:47.08 - (29.5)
2600m - 3:16.74 - (29.6)
3000m - 3:46.44 - (29.6)
3400m - 4:16.15 - (29.7)
3800m - 4:45.71 - (29.5)
4200m - 5:15.81 - (30.1)
4600m - 5:46.04 - (30.2)
5000m - 6:16.84 - (30.7)
6.36 3
13 162 Emery  Lehman USA USA 6:18.03200m - 19.03 - (19.0)
600m - 48.50 - (29.4)
1000m - 1:18.38 - (29.8)
1400m - 1:48.55 - (30.1)
1800m - 2:18.68 - (30.1)
2200m - 2:48.81 - (30.1)
2600m - 3:18.75 - (29.9)
3000m - 3:48.62 - (29.8)
3400m - 4:18.26 - (29.6)
3800m - 4:48.04 - (29.7)
4200m - 5:17.92 - (29.8)
4600m - 5:48.01 - (30.0)
5000m - 6:18.03 - (30.0)
7.55 2
14 79 Shane  Williamson JPN JPN 6:18.74200m - 18.82 - (18.8)
600m - 47.84 - (29.0)
1000m - 1:17.07 - (29.2)
1400m - 1:45.94 - (28.8)
1800m - 2:15.34 - (29.4)
2200m - 2:44.85 - (29.5)
2600m - 3:14.69 - (29.8)
3000m - 3:44.42 - (29.7)
3400m - 4:14.62 - (30.2)
3800m - 4:44.90 - (30.2)
4200m - 5:15.53 - (30.6)
4600m - 5:46.71 - (31.1)
5000m - 6:18.74 - (32.0)
8.26 1
15 139 Adrian  Wielgat POL POL 6:19.10200m - 19.66 - (19.6)
600m - 50.20 - (30.5)
1000m - 1:20.94 - (30.7)
1400m - 1:50.81 - (29.8)
1800m - 2:20.31 - (29.5)
2200m - 2:49.94 - (29.6)
2600m - 3:19.82 - (29.8)
3000m - 3:49.66 - (29.8)
3400m - 4:19.47 - (29.8)
3800m - 4:49.24 - (29.7)
4200m - 5:19.00 - (29.7)
4600m - 5:48.86 - (29.8)
5000m - 6:19.10 - (30.2)
8.62 0
16 90 Jaewon  Chung KOR KOR 6:19.13200m - 19.64 - (19.6)
600m - 48.90 - (29.2)
1000m - 1:18.43 - (29.5)
1400m - 1:48.18 - (29.7)
1800m - 2:18.36 - (30.1)
2200m - 2:48.16 - (29.7)
2600m - 3:18.27 - (30.1)
3000m - 3:48.25 - (29.9)
3400m - 4:18.25 - (30.0)
3800m - 4:48.02 - (29.7)
4200m - 5:18.06 - (30.0)
4600m - 5:48.37 - (30.3)
5000m - 6:19.13 - (30.7)
8.65 0
17 23 Denny  Morrison CAN CAN 6:19.91200m - 18.96 - (18.9)
600m - 47.93 - (28.9)
1000m - 1:17.60 - (29.6)
1400m - 1:47.72 - (30.1)
1800m - 2:17.92 - (30.1)
2200m - 2:48.08 - (30.1)
2600m - 3:18.30 - (30.2)
3000m - 3:48.46 - (30.1)
3400m - 4:18.43 - (29.9)
3800m - 4:48.46 - (30.0)
4200m - 5:18.63 - (30.1)
4600m - 5:49.16 - (30.5)
5000m - 6:19.91 - (30.7)
9.43 0
18 153 Ruslan  Zakharov RUS RUS 6:20.45200m - 18.93 - (18.9)
600m - 48.04 - (29.1)
1000m - 1:17.32 - (29.2)
1400m - 1:46.96 - (29.6)
1800m - 2:16.53 - (29.5)
2200m - 2:46.22 - (29.6)
2600m - 3:15.95 - (29.7)
3000m - 3:45.84 - (29.8)
3400m - 4:15.82 - (29.9)
3800m - 4:46.10 - (30.2)
4200m - 5:16.76 - (30.6)
4600m - 5:48.13 - (31.3)
5000m - 6:20.45 - (32.3)
9.97 0
19 39 Sebastian  Druszkiewicz CZE CZE 6:21.34200m - 19.57 - (19.5)
600m - 49.25 - (29.6)
1000m - 1:18.78 - (29.5)
1400m - 1:48.38 - (29.5)
1800m - 2:17.82 - (29.4)
2200m - 2:47.57 - (29.7)
2600m - 3:17.40 - (29.8)
3000m - 3:47.38 - (29.9)
3400m - 4:17.64 - (30.2)
3800m - 4:48.32 - (30.6)
4200m - 5:19.15 - (30.8)
4600m - 5:50.23 - (31.0)
5000m - 6:21.34 - (31.1)
10.86 0
20 10 Vitaly  Mikhailov BLR BLR 6:22.06200m - 19.58 - (19.5)
600m - 48.60 - (29.0)
1000m - 1:17.92 - (29.3)
1400m - 1:48.01 - (30.0)
1800m - 2:18.13 - (30.1)
2200m - 2:48.24 - (30.1)
2600m - 3:18.33 - (30.0)
3000m - 3:48.68 - (30.3)
3400m - 4:19.07 - (30.3)
3800m - 4:49.66 - (30.5)
4200m - 5:20.11 - (30.4)
4600m - 5:50.91 - (30.8)
5000m - 6:22.06 - (31.1)
11.58 0
21 128 Reyon  Kay NZL NZL 6:22.57200m - 19.50 - (19.5)
600m - 49.16 - (29.6)
1000m - 1:19.00 - (29.8)
1400m - 1:49.11 - (30.1)
1800m - 2:18.84 - (29.7)
2200m - 2:48.37 - (29.5)
2600m - 3:17.92 - (29.5)
3000m - 3:47.57 - (29.6)
3400m - 4:17.46 - (29.8)
3800m - 4:47.77 - (30.3)
4200m - 5:18.69 - (30.9)
4600m - 5:50.31 - (31.6)
5000m - 6:22.57 - (32.2)
12.09 0
22 4 Linus  Heidegger AUT AUT 6:23.94200m - 19.41 - (19.4)
600m - 49.51 - (30.0)
1000m - 1:19.14 - (29.6)
1400m - 1:48.73 - (29.5)
1800m - 2:18.23 - (29.4)
2200m - 2:47.89 - (29.6)
2600m - 3:17.59 - (29.7)
3000m - 3:47.49 - (29.9)
3400m - 4:17.69 - (30.1)
3800m - 4:48.50 - (30.8)
4200m - 5:19.61 - (31.1)
4600m - 5:51.41 - (31.8)
5000m - 6:23.94 - (32.5)
13.46 0
23 62 Riccardo  Bugari ITA ITA 6:24.44200m - 19.36 - (19.3)
600m - 49.14 - (29.7)
1000m - 1:18.58 - (29.4)
1400m - 1:48.67 - (30.0)
1800m - 2:18.99 - (30.3)
2200m - 2:48.90 - (29.9)
2600m - 3:19.30 - (30.4)
3000m - 3:49.63 - (30.3)
3400m - 4:20.32 - (30.6)
3800m - 4:51.31 - (30.9)
4200m - 5:22.25 - (30.9)
4600m - 5:53.22 - (30.9)
5000m - 6:24.44 - (31.2)
13.96 0
24 126 Shane  Dobbin NZL NZL 6:24.49200m - 19.48 - (19.4)
600m - 48.71 - (29.2)
1000m - 1:18.43 - (29.7)
1400m - 1:48.99 - (30.5)
1800m - 2:19.63 - (30.6)
2200m - 2:50.30 - (30.6)
2600m - 3:21.14 - (30.8)
3000m - 3:51.96 - (30.8)
3400m - 4:22.65 - (30.6)
3800m - 4:53.01 - (30.3)
4200m - 5:23.14 - (30.1)
4600m - 5:53.48 - (30.3)
5000m - 6:24.49 - (31.0)
14.01 0
25 76 Takuro  Ogawa JPN JPN 6:25.87200m - 18.85 - (18.8)
600m - 48.05 - (29.1)
1000m - 1:17.68 - (29.6)
1400m - 1:47.49 - (29.8)
1800m - 2:17.48 - (29.9)
2200m - 2:47.41 - (29.9)
2600m - 3:17.65 - (30.2)
3000m - 3:48.05 - (30.4)
3400m - 4:18.61 - (30.5)
3800m - 4:49.66 - (31.0)
4200m - 5:20.96 - (31.2)
4600m - 5:52.98 - (32.0)
5000m - 6:25.87 - (32.8)
15.39 0
26 81 Dmitry  Babenko KAZ KAZ 6:25.91200m - 18.93 - (18.9)
600m - 48.58 - (29.6)
1000m - 1:18.92 - (30.3)
1400m - 1:49.00 - (30.0)
1800m - 2:18.94 - (29.9)
2200m - 2:49.17 - (30.2)
2600m - 3:19.62 - (30.4)
3000m - 3:50.13 - (30.5)
3400m - 4:20.75 - (30.6)
3800m - 4:51.26 - (30.5)
4200m - 5:22.26 - (31.0)
4600m - 5:53.72 - (31.4)
5000m - 6:25.91 - (32.1)
15.43 0
27 19 Antoine   Gelinas-Beaulieu CAN CAN 6:27.57200m - 18.54 - (18.5)
600m - 47.48 - (28.9)
1000m - 1:16.90 - (29.4)
1400m - 1:46.60 - (29.6)
1800m - 2:16.26 - (29.6)
2200m - 2:46.18 - (29.9)
2600m - 3:16.19 - (30.0)
3000m - 3:46.51 - (30.3)
3400m - 4:17.08 - (30.5)
3800m - 4:48.14 - (31.0)
4200m - 5:20.40 - (32.2)
4600m - 5:53.60 - (33.2)
5000m - 6:27.57 - (33.9)
17.09 0
28 82 Maksim  Baklashkin KAZ KAZ 6:32.37200m - 19.60 - (19.6)
600m - 49.83 - (30.2)
1000m - 1:20.14 - (30.3)
1400m - 1:50.45 - (30.3)
1800m - 2:20.92 - (30.4)
2200m - 2:51.38 - (30.4)
2600m - 3:21.99 - (30.6)
3000m - 3:52.90 - (30.9)
3400m - 4:24.00 - (31.0)
3800m - 4:55.40 - (31.3)
4200m - 5:27.00 - (31.6)
4600m - 5:59.29 - (32.2)
5000m - 6:32.37 - (33.0)
21.89 0
29 26 Alemasi  Kahanbai CHN CHN 6:34.98200m - 19.41 - (19.4)
600m - 49.42 - (30.0)
1000m - 1:19.57 - (30.1)
1400m - 1:49.71 - (30.1)
1800m - 2:20.37 - (30.6)
2200m - 2:51.08 - (30.7)
2600m - 3:22.21 - (31.1)
3000m - 3:53.74 - (31.5)
3400m - 4:25.60 - (31.8)
3800m - 4:57.41 - (31.8)
4200m - 5:29.89 - (32.4)
4600m - 6:02.33 - (32.4)
5000m - 6:34.98 - (32.6)
24.50 0
30 38 Daniel  Zapata COL COL 6:36.66200m - 20.03 - (20.0)
600m - 50.90 - (30.8)
1000m - 1:21.97 - (31.0)
1400m - 1:53.13 - (31.1)
1800m - 2:23.84 - (30.7)
2200m - 2:54.85 - (31.0)
2600m - 3:25.88 - (31.0)
3000m - 3:57.03 - (31.1)
3400m - 4:28.49 - (31.4)
3800m - 5:00.38 - (31.8)
4200m - 5:32.23 - (31.8)
4600m - 6:04.49 - (32.2)
5000m - 6:36.66 - (32.1)
26.18 0
31 1 Joshua  Capponi AUS AUS 6:36.81200m - 19.28 - (19.2)
600m - 49.55 - (30.2)
1000m - 1:19.87 - (30.3)
1400m - 1:50.45 - (30.5)
1800m - 2:20.99 - (30.5)
2200m - 2:51.42 - (30.4)
2600m - 3:22.13 - (30.7)
3000m - 3:53.05 - (30.9)
3400m - 4:24.55 - (31.5)
3800m - 4:57.04 - (32.4)
4200m - 5:30.01 - (32.9)
4600m - 6:03.24 - (33.2)
5000m - 6:36.81 - (33.5)
26.33 0
32 168 Wei-Lin  Tai TPE TPE 6:37.09200m - 19.57 - (19.5)
600m - 50.31 - (30.7)
1000m - 1:21.56 - (31.2)
1400m - 1:52.59 - (31.0)
1800m - 2:23.72 - (31.1)
2200m - 2:54.40 - (30.6)
2600m - 3:25.48 - (31.0)
3000m - 3:56.61 - (31.1)
3400m - 4:28.33 - (31.7)
3800m - 5:00.23 - (31.9)
4200m - 5:32.60 - (32.3)
4600m - 6:04.68 - (32.0)
5000m - 6:37.09 - (32.4)
26.61 0
33 40 Jakub  Kopriva CZE CZE 6:39.89200m - 20.04 - (20.0)
600m - 50.10 - (30.0)
1000m - 1:20.14 - (30.0)
1400m - 1:50.64 - (30.5)
1800m - 2:21.77 - (31.1)
2200m - 2:53.44 - (31.6)
2600m - 3:25.64 - (32.1)
3000m - 3:57.72 - (32.0)
3400m - 4:30.16 - (32.4)
3800m - 5:02.38 - (32.2)
4200m - 5:34.72 - (32.3)
4600m - 6:07.18 - (32.4)
5000m - 6:39.89 - (32.7)
29.41 0
34 58 Bence  Dékány HUN HUN 6:44.64200m - 19.55 - (19.5)
600m - 49.71 - (30.1)
1000m - 1:20.10 - (30.3)
1400m - 1:51.49 - (31.3)
1800m - 2:23.08 - (31.5)
2200m - 2:54.77 - (31.6)
2600m - 3:27.06 - (32.2)
3000m - 3:59.60 - (32.5)
3400m - 4:32.38 - (32.7)
3800m - 5:05.23 - (32.8)
4200m - 5:38.55 - (33.3)
4600m - 6:11.80 - (33.2)
5000m - 6:44.64 - (32.8)
34.16 0
35 43 Viktor Hald  Thorup DEN DEN DNF200m - 20.24 - (20.2)
600m - 50.25 - (30.0)
1000m - 1:19.76 - (29.5)
1400m - 1:49.08 - (29.3)
1800m - 2:18.96 - (29.8)
2200m - 2:48.58 - (29.6)
2600m - 3:18.34 - (29.7)
3000m - 3:48.31 - (29.9)
3400m - 4:18.98 - (30.6)
3800m - 4:51.26 - (32.2)
4200m - 5:27.72 - (36.4)
0
35 42 Stefan Due  Schmidt DEN DEN DNF200m - 19.21 - (19.2)
600m - 48.57 - (29.3)
1000m - 1:18.46 - (29.8)
1400m - 1:48.56 - (30.1)
1800m - 2:19.05 - (30.4)
2200m - 2:49.92 - (30.8)
2600m - 3:21.56 - (31.6)
3000m - 3:54.31 - (32.7)
3400m - 4:28.91 - (34.6)
3800m - 5:12.59 - (43.6)
0